{"data":{"norad_id":45387,"epoch":"2026-09-20T06:00:02.000160Z","epoch_age_seconds":35942,"freshness":"FRESH","line1":"1 45387U 20019AD  26263.25002315  .00158726  00000+0  58999-3 0  9997","line2":"2 45387  53.0069 228.1993 0007233  82.6141 285.8858 15.87063390  5891","mean_motion":15.8706339,"eccentricity":0.0007233,"inclination_deg":53.0069,"raan_deg":228.1993,"arg_perigee_deg":82.6141,"mean_anomaly_deg":285.8858,"bstar":0.00058999,"rev_number":589,"period_min":90.733615876553,"perigee_km":305.68312166933,"apogee_km":315.35893437266,"semimajor_km":6688.658028021,"source":"CELESTRAK","updated_at":"2026-09-20T09:00:38.232492Z"}}